Location: Broekland
(52.3610°N, 6.2005°E)
Time: 05:18:01
(UTC+00:00)

Cosmos 1076 Rocket - Pass Details

Date: 19 May 2025
Orbit: 583 x 603 km, 82.5° (Epoch: 14 June)

Event Time Altitude Azimuth Distance (km) Brightness Sun altitude
Rises 20:27:35 0° 345° (NNW) 2,869 8.2 -7.4°
Reaches altitude 10° 20:29:51 10° 340° (NNW) 1,962 7.4 -7.6°
Maximum altitude 20:34:02 49° 266° (W) 786 4.4 -8.0°
Drops below altitude 10° 20:38:12 10° 191° (SSW) 1,948 5.8 -8.4°
Enters shadow 20:40:13 - 187° (S) 2,753 6.5 -8.6°
